FW5990 Weather Reports


time (UTC)temp
C
wind
direction
speed
KPH
gust
KPH
rain 1hr
cm
rain 24hr
cm
rain mn
cm
humidity
%
barometer
mb
20260504081515 7 122 0.0 1.6 0.00 0.00 0.00 80 1015.1
20260504081014 7 122 0.0 0.0 0.00 0.00 0.00 79 1015.1
20260504080514 7 122 0.0 0.0 0.00 0.00 0.00 79 1015.1
20260504050551 5 122 0.0 1.6 0.00 0.00 0.00 74 1015.7
20260504045549 5 122 0.0 0.0 0.00 0.00 0.00 73 1015.8
20260504045054 5 122 0.0 0.0 0.00 0.00 0.00 71 1015.8
20260504044551 5 122 0.0 0.0 0.00 0.00 0.00 71 1015.8
20260504044048 5 122 0.0 1.6 0.00 0.00 0.00 70 1015.8
20260504043548 5 122 0.0 1.6 0.00 0.00 0.00 72 1015.8
20260504043047 4 122 0.0 0.0 0.00 0.00 0.00 71 1015.7
20260504042546 4 122 0.0 0.0 0.00 0.00 0.00 73 1015.8
20260504042045 4 122 0.0 1.6 0.00 0.00 0.00 74 1015.7
20260504041545 4 122 0.0 1.6 0.00 0.00 0.00 75 1015.8
20260504041046 4 122 0.0 1.6 0.00 0.00 0.00 73 1015.8
20260504040546 4 122 0.0 1.6 0.00 0.00 0.00 72 1015.7
20260504040045 5 122 0.0 0.0 0.00 0.00 0.00 72 1015.7
20260504035542 5 122 0.0 0.0 0.00 0.00 0.00 72 1015.7
20260504035042 5 122 0.0 0.0 0.00 0.00 0.00 73 1015.6
20260504034542 5 122 0.0 0.0 0.00 0.00 0.00 69 1015.6
20260504034042 5 122 0.0 0.0 0.00 0.00 0.00 70 1015.6
20260504033540 5 122 0.0 1.6 0.00 0.00 0.00 70 1015.6
20260504033049 5 122 0.0 1.6 0.00 0.00 0.00 70 1015.6
20260504032540 5 122 0.0 1.6 0.00 0.00 0.00 69 1015.6
20260504032041 5 122 0.0 1.6 0.00 0.00 0.00 69 1015.6
20260504031541 5 122 0.0 1.6 0.00 0.00 0.00 69 1015.6
20260504031042 5 122 0.0 1.6 0.00 0.00 0.00 69 1015.7
20260504030539 5 122 0.0 1.6 0.00 0.00 0.00 68 1015.7
20260504030039 5 122 0.0 1.6 0.00 0.00 0.00 68 1015.7
20260504025539 5 122 0.0 1.6 0.00 0.00 0.00 68 1015.7
20260504025039 5 122 0.0 1.6 0.00 0.00 0.00 67 1015.6
20260504024547 5 122 0.0 1.6 0.00 0.00 0.00 67 1015.6
20260504024037 6 122 0.0 1.6 0.00 0.00 0.00 67 1015.5
20260504023540 6 123 0.0 1.6 0.00 0.00 0.00 67 1015.5
20260504023037 6 123 1.6 1.6 0.00 0.00 0.00 65 1015.5
20260504022538 6 123 0.0 1.6 0.00 0.00 0.00 65 1015.4
20260504022040 6 123 0.0 1.6 0.00 0.00 0.00 64 1015.4
20260504021547 6 123 0.0 1.6 0.00 0.00 0.00 64 1015.3
20260504021038 6 123 0.0 1.6 0.00 0.00 0.00 65 1015.3
20260504020536 6 123 0.0 1.6 0.00 0.00 0.00 62 1015.3
20260504020036 6 123 0.0 1.6 0.00 0.00 0.00 63 1015.2
20260504015537 6 123 0.0 1.6 0.00 0.00 0.00 62 1015.1
20260504015037 6 123 0.0 1.6 0.00 0.00 0.00 63 1015.0
20260504014536 6 123 1.6 1.6 0.00 0.00 0.00 62 1015.0
20260504014035 7 122 1.6 1.6 0.00 0.00 0.00 61 1014.9
20260504013536 7 120 0.0 1.6 0.00 0.00 0.00 62 1014.9
20260504013044 7 120 1.6 1.6 0.00 0.00 0.00 61 1014.8
20260504012535 7 120 0.0 1.6 0.00 0.00 0.00 61 1014.8
20260504012035 7 120 0.0 0.0 0.00 0.00 0.00 61 1014.8
20260504011534 7 120 0.0 0.0 0.00 0.00 0.00 60 1014.8
20260504011035 7 120 0.0 1.6 0.00 0.00 0.00 61 1014.6
20260504010534 7 120 0.0 1.6 0.00 0.00 0.00 60 1014.6
20260504010034 7 120 0.0 1.6 0.00 0.00 0.00 59 1014.6
20260504005534 7 120 0.0 1.6 0.00 0.00 0.00 58 1014.6
20260504005034 8 120 0.0 3.2 0.00 0.00 0.00 59 1014.5
20260504004542 8 126 0.0 3.2 0.00 0.00 0.00 59 1014.5
20260504004034 8 122 1.6 1.6 0.00 0.00 0.00 58 1014.5
20260504003533 8 128 0.0 3.2 0.00 0.00 0.00 57 1014.5
20260504003032 8 123 1.6 1.6 0.00 0.00 0.00 57 1014.5
20260504002533 8 124 1.6 3.2 0.00 0.00 0.00 56 1014.4
20260504002035 8 123 1.6 3.2 0.00 0.00 0.00 56 1014.4
20260504001533 9 124 1.6 3.2 0.00 0.00 0.00 56 1014.4
20260504001032 9 133 1.6 3.2 0.00 0.00 0.00 54 1014.4
20260504000533 10 129 0.0 3.2 0.00 0.00 0.00 53 1014.5
20260504000033 10 129 0.0 3.2 0.00 0.00 0.00 53 1014.5
20260503235532 10 131 0.0 3.2 0.00 0.00 0.00 51 1014.5
20260503235032 11 132 1.6 3.2 0.00 0.00 0.00 52 1014.4
20260503234531 11 134 1.6 4.8 0.00 0.00 0.00 50 1014.4
20260503234031 12 139 1.6 4.8 0.00 0.00 0.00 49 1014.3
20260503233531 12 146 1.6 4.8 0.00 0.00 0.00 49 1014.2
20260503233033 13 125 1.6 3.2 0.00 0.00 0.00 46 1014.3
20260503232530 14 132 0.0 3.2 0.00 0.00 0.00 45 1014.2
20260503232030 15 132 1.6 3.2 0.00 0.00 0.00 40 1014.2
20260503231530 15 105 0.0 4.8 0.00 0.00 0.00 35 1014.2
20260503231030 16 113 0.0 6.4 0.00 0.00 0.00 30 1014.1
20260503230530 16 115 0.0 6.4 0.00 0.00 0.00 27 1014.0
20260503230030 16 125 0.0 6.4 0.00 0.00 0.00 27 1014.1
20260503225529 16 139 1.6 6.4 0.00 0.00 0.00 27 1014.0
20260503225029 17 130 1.6 6.4 0.00 0.00 0.00 26 1014.0
20260503224528 17 124 0.0 11.3 0.00 0.00 0.00 26 1014.0
20260503224028 16 12 3.2 11.3 0.00 0.00 0.00 27 1014.0
20260503223528 16 156 1.6 8.0 0.00 0.00 0.00 25 1014.0
20260503223028 16 144 0.0 12.9 0.00 0.00 0.00 28 1014.0
20260503222527 16 169 6.4 20.9 0.00 0.00 0.00 25 1014.1
20260503222027 16 146 4.8 20.9 0.00 0.00 0.00 27 1014.1
20260503221527 17 156 8.0 17.7 0.00 0.00 0.00 26 1014.1
20260503221029 17 140 3.2 6.4 0.00 0.00 0.00 26 1014.2
20260503220526 17 182 0.0 6.4 0.00 0.00 0.00 29 1014.1
20260503220027 17 152 1.6 9.7 0.00 0.00 0.00 26 1014.1
20260503215526 16 142 1.6 16.1 0.00 0.00 0.00 27 1014.1
20260503215024 16 208 3.2 24.1 0.00 0.00 0.00 25 1014.2
20260503214524 16 76 9.7 24.1 0.00 0.00 0.00 25 1014.1
20260503214024 17 96 3.2 8.0 0.00 0.00 0.00 26 1014.2
20260503213525 16 123 1.6 16.1 0.00 0.00 0.00 26 1014.1
20260503213028 16 167 6.4 16.1 0.00 0.00 0.00 29 1014.3
20260503212523 17 161 3.2 12.9 0.00 0.00 0.00 27 1014.2
20260503212022 17 90 4.8 12.9 0.00 0.00 0.00 25 1014.3
20260503211534 16 203 3.2 16.1 0.00 0.00 0.00 25 1014.3
20260503211022 16 112 8.0 16.1 0.00 0.00 0.00 27 1014.3
20260503210522 17 94 1.6 11.3 0.00 0.00 0.00 26 1014.3
20260503210021 16 77 4.8 12.9 0.00 0.00 0.00 24 1014.4
20260503205526 16 91 4.8 19.3 0.00 0.00 0.00 26 1014.4
20260503205020 16 34 3.2 9.7 0.00 0.00 0.00 26 1014.4
20260503204518 16 74 3.2 9.7 0.00 0.00 0.00 29 1014.3
20260503204017 16 130 1.6 14.5 0.00 0.00 0.00 30 1014.3
20260503203517 16 141 4.8 14.5 0.00 0.00 0.00 26 1014.4
20260503203020 16 222 4.8 12.9 0.00 0.00 0.00 29 1014.6
20260503202517 16 115 6.4 12.9 0.00 0.00 0.00 32 1014.6
20260503202017 16 146 4.8 14.5 0.00 0.00 0.00 27 1014.7
20260503201516 16 193 6.4 12.9 0.00 0.00 0.00 31 1014.6
20260503201015 16 87 6.4 12.9 0.00 0.00 0.00 33 1014.7
20260503200516 15 63 4.8 17.7 0.00 0.00 0.00 27 1014.7
20260503200016 16 132 8.0 20.9 0.00 0.00 0.00 27 1015.0
20260503195517 16 72 4.8 17.7 0.00 0.00 0.00 27 1014.8
20260503195017 16 141 3.2 20.9 0.00 0.00 0.00 29 1015.0
20260503194515 16 168 8.0 20.9 0.00 0.00 0.00 27 1015.1
20260503194014 16 197 6.4 16.1 0.00 0.00 0.00 28 1015.0
20260503193513 16 37 1.6 12.9 0.00 0.00 0.00 30 1015.2
20260503193030 16 158 4.8 11.3 0.00 0.00 0.00 31 1015.3
20260503192511 15 209 1.6 17.7 0.00 0.00 0.00 33 1015.3
20260503192013 15 72 9.7 17.7 0.00 0.00 0.00 28 1015.5
20260503191514 15 111 3.2 22.5 0.00 0.00 0.00 31 1015.6
20260503191011 15 45 8.0 29.0 0.00 0.00 0.00 33 1015.7
20260503190512 15 31 8.0 20.9 0.00 0.00 0.00 30 1015.8
20260503190022 15 63 11.3 20.9 0.00 0.00 0.00 30 1015.7
20260503185511 15 141 6.4 17.7 0.00 0.00 0.00 32 1015.7
20260503185010 15 72 9.7 17.7 0.00 0.00 0.00 29 1016.0
20260503184509 15 350 8.0 17.7 0.00 0.00 0.00 32 1016.0
20260503184008 15 65 4.8 12.9 0.00 0.00 0.00 30 1016.0
20260503183507 15 75 4.8 20.9 0.00 0.00 0.00 32 1015.9
20260503183005 15 104 6.4 25.7 0.00 0.00 0.00 37 1016.0
20260503182505 15 168 8.0 25.7 0.00 0.00 0.00 32 1016.1
20260503182008 15 187 4.8 16.1 0.00 0.00 0.00 34 1016.1
20260503181505 14 153 8.0 16.1 0.00 0.00 0.00 32 1016.2
20260503181004 14 183 8.0 16.1 0.00 0.00 0.00 34 1016.2
20260503180504 14 246 4.8 14.5 0.00 0.00 0.00 35 1016.1
20260503180003 14 207 4.8 16.1 0.00 0.00 0.00 36 1016.1
20260503175502 14 209 8.0 16.1 0.00 0.00 0.00 35 1016.2
20260503175003 14 145 4.8 16.1 0.00 0.00 0.00 34 1016.2
20260503174501 14 94 6.4 19.3 0.00 0.00 0.00 40 1016.3
20260503174100 13 64 9.7 24.1 0.00 0.00 0.00 32 1016.3
20260503173601 13 160 3.2 24.1 0.00 0.00 0.00 34 1016.4
20260503173107 13 122 4.8 30.6 0.00 0.00 0.00 34 1016.5
20260503172601 13 63 12.9 30.6 0.00 0.00 0.00 33 1016.5
20260503172059 13 129 4.8 0.0 0.00 0.00 0.00 34 1016.6
20260503171601 13 316 3.2 22.5 0.00 0.00 0.00 37 1016.5
20260503171058 13 159 12.9 27.4 0.00 0.00 0.00 32 1016.6
20260503170559 13 359 8.0 27.4 0.00 0.00 0.00 36 1016.7
20260503150544 10 41 1.6 9.7 0.00 0.00 0.00 41 1017.6
20260503131034 8 188 1.6 20.9 0.00 0.00 0.00 50 1017.7
20260503130530 8 90 3.2 20.9 0.00 0.00 0.00 55 1017.9
20260503110512 6 71 1.6 8.0 0.00 0.00 0.00 61 1016.8